星链-31456 (STARLINK-31456 )

导读

STARLINK-31456是美国太空探索技术公司(SpaceX)开发的第二代星链(Starlink)系列卫星,于2024年2月23日发射,属于星链星座组网任务的一部分。该卫星运行在近地轨道,配备增强型相控阵天线与激光星间链路,单星容量超100Gbps,为全球用户提供高速低延迟互联网服务,助力星链实现全球覆盖,支撑其第二代星座规模化部署。

Basic Information
目录编号:
59007
目录名称:
STARLINK-31456
国际标识:
2024-036K
轨道中心:
EARTH
卫星名称:
星链-31456
卫星全名:
星链-31456 (STARLINK-31456 )
卫星状态:
在轨 (已飞行924 天)
发射日期:
2024-02-23 UTC
国别 :
美国 (US)
星等 :
--
Orbit Information
数据来源 国际轨道数据
星历时间: 2026-09-03T22:46:33+0800
15小时前
查看轨道信息
半长轴: 6840.874km
偏心率: 0.0001291
轨道倾角: 53.161°
近地点辐角 88.763°
升交点赤经 330.328°
平近点角 271.352°
近地点: 461.853km
远地点: 463.621km
周期: 93.848分钟
每日圈数: 15.343887
Detailed Information
固有亮度:
5
最大亮度:
0.3
卫星平台:
Starlink v2.0 mini
覆盖范围:
全球
运营商:
太空探索技术公司
运营商所在国:
美国
制造商(研发单位):
太空探索技术公司
制造商所在国:
美国
使用方式:
暂无
Satellite Introduction
星链(Starlink)计划是由太空探索技术公司(SpaceX)提出的一个巨型低轨卫星互联网星座项目,计划在2019年至2024年间在太空搭建由约1.2万颗卫星组成的“星链”网络,其中1584颗将部署在地球上空550千米处的近地轨道,并从2020年开始工作。该卫星仍在工作。
2D Orbit Map
3D Orbit Map
Orbit Altitude Analysis Chart
Orbit Inclination Analysis Chart
Orbit Comprehensive Analysis Chart
View Comprehensive Chart
Conjunction Data List
Event ID Objects TCA Miss Dist (km) Collision Risk Probability Collision Risk Index (CRI) Action
CDM_260905-043705-900706-870621
2026-09-05T
04:37:26+0000
0.729 km
远距离
3.516826E-5 中风险 0.66
CDM_260904-052005-900706-521521
2026-09-04T
05:20:32+0000
0.892 km
远距离
2.462258E-5 中风险 0.63
CDM_260903-204405-900706-521521
2026-09-03T
20:44:41+0000
1.137 km
极远距离
1.065957E-5 中风险 0.56
CDM_260905-061105-900706-870621
2026-09-05T
06:11:14+0000
1.845 km
极远距离
1.733125E-6 低风险 0.4
CDM_260903-024805-265905-900722
2026-09-03T
02:48:24+0000
2.791 km
极远距离
1.112927E-6 低风险 0.36
CDM_260904-065305-253905-900721
2026-09-04T
06:53:56+0000
2.811 km
极远距离
9.547561E-7 极低风险 0.35
CDM_260905-030305-900706-870621
2026-09-05T
03:03:39+0000
2.644 km
极远距离
8.336923E-7 极低风险 0.33
CDM_260903-120105-249705-900721
2026-09-03T
12:01:49+0000
2.441 km
极远距离
4.220252E-7 极低风险 0.28